Location: Mount Graham
(32.7016°N, 109.8912°W)
Time: 02:51:04
(UTC-07:00)

Cosmos 1340 - Visible Passes

Search period start: 08 December 2016 00:00
Search period end: 18 December 2016 00:00
Orbit: 506 x 512 km, 81.2° (Epoch: 07 December)

Date Brightness Start Highest point End Pass type
(mag) Time Alt. Az. Time Alt. Az. Time Alt. Az.
08 Dec 3.4 06:14:38 10° N 06:18:22 56° E 06:22:05 10° SSE visible
08 Dec 4.4 18:24:24 10° SE 18:25:52 17° ESE 18:25:52 17° ESE visible
08 Dec 5.8 20:00:06 10° WSW 20:00:48 13° WSW 20:00:48 13° WSW visible
09 Dec 4.0 05:57:33 10° N 06:01:09 41° E 06:04:44 10° SSE visible
09 Dec 4.4 18:07:48 10° SE 18:09:53 15° E 18:09:53 15° E visible
09 Dec 5.1 19:42:27 10° SW 19:44:48 22° W 19:44:48 22° W visible
10 Dec 4.5 05:40:31 10° NNE 05:43:56 31° ENE 05:47:20 10° SE visible
10 Dec 4.6 17:51:32 10° ESE 17:52:56 12° E 17:53:52 11° ENE visible
10 Dec 4.4 19:24:55 10° SW 19:28:17 30° WNW 19:28:49 29° WNW visible
11 Dec 4.9 05:23:33 10° NNE 05:26:42 24° ENE 05:29:49 10° SE visible
11 Dec 3.9 19:07:29 10° SSW 19:11:03 39° W 19:12:45 25° NNW visible
12 Dec 5.3 05:06:41 10° NNE 05:09:27 19° ENE 05:12:12 10° ESE visible
12 Dec 4.1 06:42:17 10° NW 06:45:00 19° W 06:47:43 10° SW visible
12 Dec 3.4 18:50:08 10° SSW 18:53:50 53° W 18:56:39 16° N visible
13 Dec 5.6 04:49:58 10° NE 04:52:11 15° ENE 04:54:23 10° ESE visible
13 Dec 3.8 06:24:45 10° NW 06:27:51 24° W 06:30:57 10° SSW visible
13 Dec 2.8 18:32:51 10° SSW 18:36:36 72° W 18:40:23 10° N visible
14 Dec 5.8 04:33:46 10° NE 04:34:54 11° ENE 04:36:12 10° E visible
14 Dec 3.4 06:08:41 19° NW 06:10:42 32° W 06:14:05 10° SSW visible
14 Dec 2.5 18:15:39 10° S 18:19:25 84° E 18:23:12 10° N visible
15 Dec 3.0 05:52:40 36° WNW 05:53:31 42° W 05:57:06 10° SSW visible
15 Dec 2.6 17:58:30 10° S 18:02:13 62° E 18:05:57 10° NNE visible
16 Dec 2.7 05:36:40 55° WSW 05:36:40 55° WSW 05:40:03 10° S visible
16 Dec 3.0 17:41:25 10° SSE 17:45:01 45° E 17:48:40 10° NNE visible
17 Dec 3.8 05:20:41 34° S 05:20:41 34° S 05:22:55 10° S visible
17 Dec 5.9 19:02:46 10° W 19:03:40 11° WNW 19:04:34 10° WNW visible
